Skip Navigation Links weather.gov 
NOAA logo-Select to go to the NOAA homepage NDBC Title GraphicClick to go to NDBC home page   Select to go to the NWS homepage
Home About Us Contact Us
 
 
    
    Station List

 Data Access
    Mobile Access
    Interactive Maps
         All Stations
         DART®
    Obs Search
    Ship Obs Report
    BuoyCAMs
    TAO
    DODS
    OceanSITES
    HF Radar
    OSMC
    Dial-A-Buoy
    RSS Feeds Image indicating link to RSS feed access page
    Web Widget
    Web Data Guide
    Maintenance Schedule
    Station Status Report

 Program Info
    TAO
    DART®
    IOOS®

 Publications
    NDBC PEA
    NDBC FONSI
    NDBC DQC Handbook

 Visitor Information
 
USA.gov is the U.S. government's official web portal to all federal, state and local government web resources and services.

Station SKXA2 - Skagway MXAK, AK Image indicating link to RSS feed of recent meteorological observations for station SKXA2

Owned and maintained by Marine Exchange of Alaska
C-MAN Station
59.448 N 135.326 W (59°26'54" N 135°19'35" W)

Site elevation: 4.6 m above mean sea level
Air temp height: 10.1 m above site elevation
Anemometer height: 10.1 m above site elevation
Barometer elevation: 14.6 m above mean sea level

Search And Rescue (SAR) Data

Meteorological Observations from Nearby Stations and Ships Image indicating link to RSS feed of recent meteorological observations near station SKXA2

Large icon indicates selected station.
yellow diamond Stations with recent data
red diamond Stations with no data in last 8 hours
     (24 hours for tsunami stations)


Conditions at SKXA2 as of
(8:23 pm AKST on 11/28/2021)
0523 GMT on 11/29/2021:
     

Click on the graph icon in the table below to see a time series plot of the last five days of that observation.

5-day plot - Wind Direction Wind Direction (WDIR): SSE ( 160 deg true )
5-day plot - Wind Speed Wind Speed (WSPD): 24 kts
5-day plot - Wind Gust Wind Gust (GST): 35 kts
5-day plot - Atmospheric Pressure Atmospheric Pressure (PRES): 29.65 in
5-day plot - Air Temperature Air Temperature (ATMP): 33.6 °F
5-day plot - Dew Point Dew Point (DEWP): 25.5 °F
5-day plot - Wind Chill Wind Chill (CHILL): 20.3 °F
5-day plot - Wind Speed at 10 Meters Wind Speed at 10 meters (WSPD10M): 23 kts
5-day plot - Wind Speed at 10 Meters Wind Speed at 20 meters (WSPD20M): 25 kts
5-day plot - Wind Speed, Wind Gust and Atmospheric Pressure Combined plot of Wind Speed, Gust, and Air Pressure
Previous observations
5-day plot - Wind Direction 5-day plot - Wind Speed 5-day plot - Wind Gust 5-day plot - Wave Height 5-day plot - Dominant Wave Period 5-day plot - Average Period 5-day plot - Mean Wave Direction 5-day plot - Atmospheric Pressure 5-day plot - Pressure Tendency 5-day plot - Air Temperature 5-day plot - Water Temperature 5-day plot - Dew Point 5-day plot - Salinity 5-day plot - Visibility 5-day plot - Tide (above MLLW)
MM DD TIME
(AKST)
WDIR WSPD
kts
GST
kts
WVHT
ft
DPD
sec
APD
sec
MWD PRES
in
PTDY
in
ATMP
°F
WTMP
°F
DEWP
°F
SAL
psu
VIS
nmi
TIDE
ft
1128 8:13 pm S 22 30----29.65- 33.8- 25.2---
1128 8:03 pmSSE 19 32----29.65- 33.6- 26.2---
1128 7:53 pmSSE 16 31----29.64- 33.3- 24.1---
1128 7:43 pmSSE 17 31----29.64- 33.3- 24.1---
1128 7:33 pmSSE 11 26----29.64- 33.4- 20.8---
1128 7:23 pmSSE 12 27----29.63- 33.8- 22.1---
1128 7:13 pmSSE 20 33----29.63- 33.6- 24.4---
1128 7:03 pmSSE 25 34----29.63- 33.4- 25.9---
1128 6:53 pmSSE 22 31----29.62- 33.3- 26.8---
1128 6:43 pm S 24 32----29.62- 33.1- 26.1---
1128 6:33 pm S 25 34----29.62- 32.9- 24.8---
1128 6:23 pmSSE 18 29----29.62- 33.3- 23.9---
1128 6:13 pmSSE 21 30----29.62- 33.3- 26.2---
1128 6:03 pm S 24 34----29.62- 33.3- 25.7---
1128 5:53 pmSSE 21 33----29.62- 33.3- 24.8---
1128 5:43 pmSSE 11 21----29.61- 33.4- 18.1---
1128 5:33 pmSSE 12 23----29.60- 33.8- 16.9---
1128 5:23 pm SE 13 22----29.61- 33.8- 16.0---
1128 5:13 pm SE 12 22----29.60- 33.8- 16.0---
1128 5:03 pm SE 12 25----29.59- 33.6- 16.2---
1128 4:53 pm SE 12 21----29.59- 33.6- 16.5---
1128 4:43 pmSSE 13 22----29.59- 33.4- 17.4---
1128 4:33 pmSSE 12 24----29.59- 33.4- 17.6---
1128 4:23 pmSSE 13 21----29.58- 33.6- 17.2---
1128 4:13 pmSSE 13 19----29.58- 33.8- 16.9---
1128 4:03 pm SE 12 20----29.57- 33.6- 17.4---
1128 3:53 pm SE 12 21----29.57- 33.8- 17.4---
1128 3:43 pmSSE 14 23----29.56- 34.0- 17.6---
1128 3:33 pmSSE 14 27----29.56- 34.0- 19.8---
1128 3:23 pmSSE 11 18----29.55- 34.0- 19.8---
1128 3:13 pm S 23 35----29.55- 34.0- 25.0---
1128 2:53 pm S 24 31----29.54- 33.1- 27.1---
1128 2:43 pm S 27 36----29.55- 32.7- 28.2---
1128 2:33 pmSSE 26 36----29.55- 32.9- 28.6---
1128 2:23 pmSSE 26 37----29.54- 33.3- 27.0---
1128 2:13 pmSSE 23 32----29.54- 33.1- 27.3---
1128 2:03 pmSSE 25 39----29.53- 33.6- 26.8---
1128 1:53 pmSSE 24 33----29.52- 34.2- 26.2---
1128 1:43 pm S 25 35----29.52- 34.2- 25.7---
1128 1:33 pm S 24 32----29.52- 34.0- 26.6---
1128 1:23 pm S 21 29----29.52- 33.8- 27.0---
1128 1:13 pmSSE 18 26----29.52- 33.4- 26.8---
1128 1:03 pmSSE 19 26----29.51- 33.4- 26.2---
112812:53 pmSSE 18 27----29.51- 32.9- 27.0---
112812:43 pmSSE 19 30----29.51- 32.9- 27.0---
112812:33 pmSSE 16 29----29.51- 32.4- 27.3---
112812:23 pmSSE 15 21----29.51- 32.2- 26.6---
112812:13 pmSSE 16 22----29.50- 32.2- 25.7---
112812:03 pmSSE 14 21----29.50- 32.9- 25.2---
112811:53 amSSE 18 25----29.50- 32.9- 25.0---
112811:43 amSSE 14 22----29.50- 32.7- 24.8---
112811:33 amSSE 13 19----29.49- 32.7- 21.9---
112811:23 am SE 9 17----29.49- 32.9- 20.5---
112811:13 am SE 8 14----29.49- 32.9- 20.3---
112811:03 am SE 8 13----29.48- 33.1- 20.1---
112810:53 am SE 8 14----29.48- 32.9- 19.8---
112810:43 am SE 7 15----29.48- 33.1- 19.6---
112810:33 am SE 8 13----29.48- 32.9- 20.1---
112810:23 am SE 8 15----29.47- 32.9- 20.5---
112810:13 am SE 8 13----29.47- 32.7- 20.5---
112810:03 am SE 9 15----29.47- 32.9- 20.8---
1128 9:53 amESE 8 13----29.46- 32.7- 21.2---
1128 9:43 am SE 10 16----29.46- 32.7- 21.4---
1128 9:33 am SE 10 16----29.45- 32.9- 21.0---
1128 9:23 am SE 11 18----29.44- 32.9- 20.7---
1128 9:13 am SE 10 18----29.43- 33.1- 20.3---
1128 9:03 am SE 11 17----29.42- 33.3- 19.0---
1128 8:53 am SE 9 15----29.42- 33.4- 18.1---
1128 8:43 am SE 9 15----29.41- 33.8- 16.9---
1128 8:33 am SE 6 12----29.40- 34.0- 14.5---
1128 8:23 am SE 8 14----29.39- 34.2- 13.3---
1128 8:13 am SE 9 18----29.38- 34.3- 13.1---
1128 8:03 am SE 10 18----29.37- 34.5- 12.9---
1128 7:53 am SE 10 19----29.36- 34.5- 13.8---
1128 7:43 am SE 11 18----29.36- 34.5- 14.0---
1128 7:33 am SE 12 24----29.35- 34.7- 13.3---
1128 7:23 am SE 12 21----29.34- 34.9- 13.5---
1128 7:13 am SE 11 19----29.34- 35.1- 13.5---
1128 7:03 am SE 11 23----29.33- 35.1- 14.2---
1128 6:53 am SE 10 18----29.32- 35.1- 14.7---
1128 6:43 am SE 10 16----29.31- 35.2- 15.4---
1128 6:33 am SE 12 19----29.31- 35.4- 15.6---
1128 6:23 amSSE 12 21----29.30- 35.8- 15.6---
1128 6:13 amSSE 10 19----29.29- 35.8- 15.4---
1128 6:03 amSSE 12 22----29.28- 36.0- 15.3---
1128 5:53 amSSE 11 20----29.27- 36.0- 17.1---
1128 5:43 amSSE 10 18----29.27- 36.1- 16.9---
1128 5:33 am S 20 31----29.27- 36.3- 21.4---
1128 5:23 amSSE 14 29----29.26- 36.0- 21.0---
1128 5:13 am SE 7 14----29.26- 36.0- 18.9---
1128 5:03 am SE 8 13----29.26- 36.5- 18.0---
1128 4:53 amSSE 12 22----29.26- 36.9- 16.0---
1128 4:43 amSSE 13 25----29.26- 36.9- 16.0---
1128 4:33 am SE 12 22----29.26- 37.0- 16.2---
1128 4:23 am SE 15 24----29.25- 37.2- 16.9---
1128 4:13 amSSE 16 30----29.25- 37.4- 17.4---
1128 4:03 am SE 14 27----29.25- 37.4- 18.5---
1128 3:53 amSSE 8 17----29.24- 35.6- 22.5---
1128 3:43 amNNE 5 11----29.23- 32.0- 27.3---
1128 3:33 am N 8 14----29.23- 30.7- 27.5---
1128 3:23 am N 11 17----29.22- 30.2- 27.1---
1128 3:13 am N 5 10----29.23- 30.0- 27.0---
1128 3:03 am N 6 9----29.23- 29.5- 26.4---
1128 2:53 am N 4 8----29.23- 29.3- 26.1---
1128 2:43 amNNW 4 8----29.23- 28.9- 26.2---
1128 2:33 am N 5 7----29.23- 28.8- 26.2---
1128 2:23 am N 5 7----29.23- 28.6- 26.2---
1128 2:13 am N 3 5----29.23- 28.8- 26.4---
1128 2:03 am N 4 5----29.24- 28.9- 26.6---
1128 1:53 am N 3 4----29.23- 29.3- 26.6---
1128 1:43 am N 2 3----29.23- 29.7- 26.8---
1128 1:33 am NW 3 5----29.23- 29.8- 26.6---
1128 1:23 amWNW 3 5----29.23- 30.4- 26.6---
1128 1:13 amWNW 3 5----29.23- 30.6- 26.8---
1128 1:03 am W 2 4----29.23- 30.9- 27.0---
112812:53 am W 2 3----29.23- 31.1- 27.1---
112812:43 am SW 2 3----29.24- 31.3- 27.0---
112812:33 am SW 3 5----29.24- 31.5- 26.8---
112812:23 am SW 2 3----29.24- 31.3- 26.2---
112812:13 amWSW 3 4----29.23- 31.5- 26.1---
112812:03 am NW 2 4----29.23- 31.6- 23.7---
112711:53 pmNNW 2 3----29.22- 31.5- 23.9---
112711:43 pmNNW 2 3----29.22- 31.6- 23.5---
112711:33 pmNNW 2 3----29.22- 31.8- 23.7---
112711:23 pmWNW 3 6----29.21- 31.3- 24.3---
112711:13 pm W 3 5----29.21- 31.5- 25.2---
112711:03 pm W 3 5----29.21- 31.8- 25.3---
112710:53 pm N 1 2----29.21- 32.0- 23.5---
112710:43 pm NW 2 4----29.20- 32.0- 23.7---
112710:33 pmWNW 2 3----29.20- 32.0- 24.1---
112710:23 pm N 2 4----29.20- 32.4- 22.6---
112710:13 pm NW 2 3----29.19- 32.2- 23.0---
112710:03 pm W 2 3----29.19- 32.2- 22.8---
1127 9:53 pmNNW 3 5----29.19- 32.4- 22.1---
1127 9:43 pm NE 2 3----29.18- 32.5- 22.3---
1127 9:33 pm N 1 2----29.18- 32.2- 23.5---
1127 9:23 pmWNW 2 4----29.18- 32.4- 23.0---
1127 9:13 pmNNW 4 8----29.18- 32.5- 22.1---
1127 9:03 pm N 6 14----29.17- 32.5- 21.4---
1127 8:53 pmNNE 5 9----29.17- 32.7- 21.6---
1127 8:43 pm N 5 8----29.17- 32.5- 21.7---
1127 8:33 pmNNE 4 9----29.17- 32.4- 21.9---
1127 8:23 pm N 4 10----29.18- 32.5- 21.7---
1127 8:13 pm N 3 5----29.18- 32.2- 22.5---
1127 8:03 pm N 4 6----29.18- 32.4- 22.5---
1127 7:53 pm N 3 6----29.18- 32.4- 22.5---

Description of Measurements

Links which are specific to this station are listed below:

Real Time Data in tabular form for the last forty-five days.

Historical Data & Climatic Summaries for quality controlled data for the current month, previous months, and previous years.